When you browse on this site, cookies collect data to enhance your experience and personalize the content and advertising you see.
Visit our Privacy Policy to learn more. By continuing to use the site, you agree to this use of cookies and data.
  • In Switzerland
  • List of Countries
  • For 7 days
  • Water Temperature
  • Weather Map
  • Weather Widgets
  • user-avatar
    Login

    Hourly Weather Bar

    Today, 25 May, Monday

    Time Temperature Precipitation Wind Pressure Humidity
    00:00 +1°C° 0 mm 3 mps 618 mmHg 90%
    01:00 0°C° 0 mm 3 mps 617 mmHg 91%
    02:00 0°C° 0 mm 3 mps 617 mmHg 90%
    03:00 0°C° 0 mm 3 mps 617 mmHg 89%
    04:00 -1°C° 0 mm 3 mps 617 mmHg 88%
    05:00 +1°C° 0 mm 3 mps 618 mmHg 84%
    06:00 +2°C° 0 mm 3 mps 618 mmHg 80%
    07:00 +3°C° 0 mm 3 mps 618 mmHg 76%
    08:00 +4°C° 0 mm 3 mps 619 mmHg 68%
    09:00 +5°C° 0 mm 3 mps 619 mmHg 61%
    10:00 +8°C° 0 mm 3 mps 619 mmHg 54%
    11:00 +8°C° 0 mm 3 mps 619 mmHg 53%
    12:00 +9°C° 0 mm 3 mps 619 mmHg 52%
    13:00 +9°C° 0 mm 3 mps 619 mmHg 51%
    14:00 +9°C° 0.1 mm 3 mps 619 mmHg 52%
    15:00 +9°C° 0.1 mm 3 mps 619 mmHg 53%
    16:00 +9°C° 0.1 mm 3 mps 619 mmHg 54%
    17:00 +7°C° 0.1 mm 2 mps 618 mmHg 62%
    18:00 +5°C° 0.1 mm 2 mps 617 mmHg 71%
    19:00 +3°C° 0.1 mm 2 mps 616 mmHg 79%
    20:00 +3°C° 0 mm 2 mps 616 mmHg 80%
    21:00 +3°C° 0 mm 2 mps 616 mmHg 81%
    22:00 +2°C° 0 mm 2 mps 616 mmHg 82%
    23:00 +2°C° 0 mm 2 mps 616 mmHg 82%

    Tomorrow, 26 May, Tuesday

    Time Temperature Precipitation Wind Pressure Humidity
    00:00 +2°C° 0 mm 2 mps 616 mmHg 83%
    01:00 +2°C° 0 mm 2 mps 616 mmHg 84%
    02:00 +1°C° 0 mm 2 mps 615 mmHg 85%
    03:00 +1°C° 0 mm 2 mps 615 mmHg 86%
    04:00 -1°C° 0 mm 2 mps 615 mmHg 87%
    05:00 +1°C° 0.3 mm 2 mps 615 mmHg 85%
    06:00 +2°C° 0.3 mm 2 mps 615 mmHg 84%
    07:00 +1°C° 0.3 mm 3 mps 615 mmHg 83%
    08:00 +2°C° 0.1 mm 3 mps 616 mmHg 79%
    09:00 +3°C° 0.1 mm 3 mps 616 mmHg 75%
    10:00 +4°C° 0.1 mm 3 mps 617 mmHg 70%
    11:00 +4°C° 0.5 mm 3 mps 617 mmHg 73%
    12:00 +3°C° 0.5 mm 3 mps 616 mmHg 75%
    13:00 +3°C° 0.5 mm 3 mps 616 mmHg 77%
    14:00 +3°C° 0.1 mm 3 mps 616 mmHg 76%
    15:00 +4°C° 0.1 mm 3 mps 616 mmHg 74%
    16:00 +4°C° 0.1 mm 3 mps 616 mmHg 72%
    17:00 +3°C° 0.1 mm 3 mps 615 mmHg 77%
    18:00 +2°C° 0.1 mm 3 mps 615 mmHg 81%
    19:00 +1°C° 0.1 mm 3 mps 615 mmHg 86%
    20:00 0°C° 0 mm 3 mps 615 mmHg 86%
    21:00 0°C° 0 mm 3 mps 615 mmHg 87%
    22:00 0°C° 0 mm 3 mps 615 mmHg 87%
    23:00 0°C° 0 mm 3 mps 615 mmHg 88%

    Day after tomorrow, 27 May, Wednesday

    Time Temperature Precipitation Wind Pressure Humidity
    00:00 0°C° 0 mm 3 mps 615 mmHg 88%
    01:00 0°C° 0 mm 3 mps 615 mmHg 89%
    02:00 0°C° 0 mm 3 mps 615 mmHg 89%
    03:00 0°C° 0 mm 3 mps 615 mmHg 89%
    04:00 0°C° 0 mm 3 mps 615 mmHg 89%
    05:00 +1°C° 0 mm 3 mps 615 mmHg 86%
    06:00 +1°C° 0 mm 3 mps 616 mmHg 83%
    07:00 +2°C° 0 mm 3 mps 616 mmHg 81%
    08:00 +3°C° 0.1 mm 3 mps 617 mmHg 77%
    09:00 +4°C° 0.1 mm 3 mps 617 mmHg 73%
    10:00 +5°C° 0.1 mm 4 mps 618 mmHg 70%
    11:00 +7°C° 0.1 mm 3 mps 618 mmHg 68%
    12:00 +7°C° 0.1 mm 3 mps 618 mmHg 66%
    13:00 +8°C° 0.1 mm 3 mps 618 mmHg 64%
    14:00 +8°C° 0.1 mm 3 mps 618 mmHg 66%
    15:00 +8°C° 0.1 mm 3 mps 617 mmHg 67%
    16:00 +7°C° 0.1 mm 3 mps 617 mmHg 68%
    17:00 +5°C° 0.1 mm 3 mps 617 mmHg 74%
    18:00 +4°C° 0.1 mm 3 mps 616 mmHg 80%
    19:00 +3°C° 0.1 mm 2 mps 616 mmHg 86%
    20:00 +3°C° 0 mm 2 mps 616 mmHg 86%
    21:00 +2°C° 0 mm 3 mps 616 mmHg 87%
    22:00 +2°C° 0 mm 3 mps 616 mmHg 88%
    23:00 +2°C° 0.1 mm 3 mps 616 mmHg 88%

    28 May, Thursday

    Time Temperature Precipitation Wind Pressure Humidity
    00:00 +1°C° 0.1 mm 3 mps 616 mmHg 88%
    01:00 +2°C° 0.1 mm 2 mps 616 mmHg 88%
    02:00 +2°C° 0 mm 2 mps 615 mmHg 88%
    03:00 +1°C° 0 mm 2 mps 615 mmHg 89%
    04:00 +1°C° 0 mm 2 mps 615 mmHg 89%
    05:00 +2°C° 0 mm 2 mps 615 mmHg 86%
    06:00 +4°C° 0 mm 2 mps 616 mmHg 82%
    07:00 +5°C° 0 mm 2 mps 616 mmHg 79%
    08:00 +6°C° 0 mm 2 mps 617 mmHg 73%
    09:00 +7°C° 0 mm 2 mps 617 mmHg 68%
    10:00 +8°C° 0 mm 2 mps 618 mmHg 62%
    11:00 +9°C° 0.2 mm 2 mps 618 mmHg 61%
    12:00 +10°C° 0.2 mm 2 mps 617 mmHg 60%
    13:00 +10°C° 0.2 mm 2 mps 617 mmHg 58%
    14:00 +10°C° 0.6 mm 2 mps 617 mmHg 62%
    15:00 +9°C° 0.6 mm 2 mps 617 mmHg 66%
    16:00 +9°C° 0.6 mm 2 mps 616 mmHg 70%
    17:00 +7°C° 0.1 mm 2 mps 616 mmHg 75%
    18:00 +6°C° 0.1 mm 2 mps 615 mmHg 79%
    19:00 +4°C° 0.1 mm 2 mps 615 mmHg 84%
    20:00 +4°C° 0 mm 2 mps 615 mmHg 85%
    21:00 +3°C° 0 mm 2 mps 614 mmHg 86%
    22:00 +2°C° 0 mm 2 mps 614 mmHg 87%
    23:00 +2°C° 0 mm 2 mps 614 mmHg 86%

    29 May, Friday

    Time Temperature Precipitation Wind Pressure Humidity
    00:00 +2°C° 0 mm 2 mps 614 mmHg 85%
    01:00 +1°C° 0 mm 2 mps 614 mmHg 84%
    02:00 +1°C° 0 mm 2 mps 613 mmHg 84%
    03:00 +1°C° 0 mm 2 mps 613 mmHg 85%
    04:00 +1°C° 0 mm 2 mps 613 mmHg 85%
    05:00 +2°C° 0 mm 2 mps 614 mmHg 81%
    06:00 +4°C° 0 mm 2 mps 615 mmHg 78%
    07:00 +6°C° 0 mm 2 mps 615 mmHg 75%
    08:00 +8°C° 0.1 mm 1 mps 616 mmHg 71%
    09:00 +9°C° 0.1 mm 1 mps 616 mmHg 67%
    10:00 +10°C° 0.1 mm 1 mps 617 mmHg 63%
    11:00 +11°C° 0.4 mm 1 mps 617 mmHg 62%
    12:00 +11°C° 0.4 mm 1 mps 616 mmHg 62%
    13:00 +12°C° 0.4 mm 1 mps 616 mmHg 61%
    14:00 +12°C° 0.3 mm 1 mps 616 mmHg 61%
    15:00 +11°C° 0.3 mm 1 mps 616 mmHg 61%
    16:00 +11°C° 0.3 mm 1 mps 615 mmHg 61%
    17:00 +9°C° 0.3 mm 1 mps 615 mmHg 69%
    18:00 +7°C° 0.3 mm 1 mps 614 mmHg 76%
    19:00 +5°C° 0.3 mm 0 mps 613 mmHg 84%
    20:00 +4°C° 0 mm 0 mps 613 mmHg 85%
    21:00 +4°C° 0 mm 1 mps 613 mmHg 86%
    22:00 +4°C° 0 mm 1 mps 613 mmHg 87%
    23:00 +3°C° 0 mm 1 mps 613 mmHg 87%

    30 May, Saturday

    Time Temperature Precipitation Wind Pressure Humidity
    00:00 +3°C° 0 mm 1 mps 613 mmHg 88%
    01:00 +3°C° 0 mm 1 mps 613 mmHg 88%
    02:00 +3°C° 0 mm 1 mps 613 mmHg 88%
    03:00 +2°C° 0 mm 1 mps 612 mmHg 87%
    04:00 +2°C° 0 mm 1 mps 612 mmHg 87%
    05:00 +4°C° 0 mm 1 mps 613 mmHg 82%
    06:00 +6°C° 0 mm 1 mps 613 mmHg 78%
    07:00 +8°C° 0 mm 1 mps 614 mmHg 73%
    08:00 +9°C° 0 mm 1 mps 615 mmHg 67%
    09:00 +9°C° 0 mm 2 mps 615 mmHg 61%
    10:00 +10°C° 0 mm 2 mps 615 mmHg 54%
    11:00 +11°C° 0 mm 3 mps 615 mmHg 54%
    12:00 +11°C° 0 mm 3 mps 615 mmHg 54%
    13:00 +12°C° 0 mm 3 mps 615 mmHg 54%
    14:00 +11°C° 0.2 mm 3 mps 615 mmHg 58%
    15:00 +10°C° 0.2 mm 3 mps 615 mmHg 63%
    16:00 +10°C° 0.2 mm 3 mps 615 mmHg 68%
    17:00 +8°C° 0.2 mm 2 mps 614 mmHg 75%
    18:00 +7°C° 0.2 mm 2 mps 613 mmHg 82%
    19:00 +6°C° 0.2 mm 1 mps 613 mmHg 89%
    20:00 +5°C° 0 mm 1 mps 613 mmHg 88%
    21:00 +5°C° 0 mm 1 mps 613 mmHg 87%
    22:00 +4°C° 0 mm 1 mps 613 mmHg 87%
    23:00 +4°C° 0 mm 1 mps 613 mmHg 87%
    Show more